Time,TemperatureF,DewpointF,PressureIn,WindDirection,WindDirectionDegrees,WindSpeedMPH,WindSpeedGustMPH,Humidity,HourlyPrecipIn,Conditions,Clouds,dailyrainin,SoftwareType,DateUTC
2013-04-28 00:01:00,32.5,25.5,30.34,South,185,0.0,0.0,75,0.00,,CLR,0.00,VWS V14.01,2013-04-28 04:01:00,
2013-04-28 00:02:00,32.5,25.5,30.34,South,185,0.0,0.0,75,0.00,,CLR,0.00,VWS V14.01,2013-04-28 04:02:00,
2013-04-28 00:07:00,32.2,25.5,30.34,South,185,0.0,0.0,76,0.00,,CLR,0.00,VWS V14.01,2013-04-28 04:07:00,
2013-04-28 00:12:00,32.2,25.5,30.34,South,185,0.0,0.0,76,0.00,,CLR,0.00,VWS V14.01,2013-04-28 04:12:00,
2013-04-28 00:17:00,32.2,25.5,30.34,South,185,0.0,0.0,76,0.00,,CLR,0.00,VWS V14.01,2013-04-28 04:17:00,
2013-04-28 00:22:00,31.8,25.4,30.34,South,185,0.0,0.0,77,0.00,,CLR,0.00,VWS V14.01,2013-04-28 04:22:00,
2013-04-28 00:27:00,31.6,25.3,30.34,South,185,0.0,0.0,77,0.00,,CLR,0.00,VWS V14.01,2013-04-28 04:27:00,
2013-04-28 00:32:00,31.5,25.1,30.34,South,185,0.0,0.0,77,0.00,,CLR,0.00,VWS V14.01,2013-04-28 04:32:00,
2013-04-28 00:37:00,31.5,25.1,30.34,South,185,0.0,0.0,77,0.00,,CLR,0.00,VWS V14.01,2013-04-28 04:37:00,
2013-04-28 00:42:00,31.3,25.2,30.34,South,185,0.0,0.0,78,0.00,,CLR,0.00,VWS V14.01,2013-04-28 04:42:00,
2013-04-28 00:47:00,31.1,25.0,30.34,South,185,0.0,0.0,78,0.00,,CLR,0.00,VWS V14.01,2013-04-28 04:47:00,
2013-04-28 00:52:00,31.1,25.0,30.34,South,185,0.0,0.0,78,0.00,,CLR,0.00,VWS V14.01,2013-04-28 04:52:00,
2013-04-28 00:57:00,30.9,24.9,30.34,South,185,0.0,0.0,78,0.00,,CLR,0.00,VWS V14.01,2013-04-28 04:57:00,
2013-04-28 01:02:00,30.9,24.9,30.34,South,185,0.0,0.0,78,0.00,,CLR,0.00,VWS V14.01,2013-04-28 05:02:00,
2013-04-28 01:07:00,30.7,24.7,30.34,South,185,0.0,0.0,78,0.00,,CLR,0.00,VWS V14.01,2013-04-28 05:07:00,
2013-04-28 01:12:00,30.6,24.8,30.34,South,185,0.0,0.0,79,0.00,,CLR,0.00,VWS V14.01,2013-04-28 05:12:00,
2013-04-28 01:17:00,30.4,24.7,30.34,South,185,0.0,0.0,79,0.00,,CLR,0.00,VWS V14.01,2013-04-28 05:17:00,
2013-04-28 01:22:00,30.4,24.7,30.34,South,185,0.0,0.0,79,0.00,,CLR,0.00,VWS V14.01,2013-04-28 05:22:00,
2013-04-28 01:27:00,30.4,24.7,30.34,South,185,0.0,0.0,79,0.00,,CLR,0.00,VWS V14.01,2013-04-28 05:27:00,
2013-04-28 01:32:00,30.2,24.8,30.34,South,185,0.0,0.0,80,0.00,,CLR,0.00,VWS V14.01,2013-04-28 05:32:00,
2013-04-28 01:37:00,30.2,24.8,30.34,South,185,0.0,0.0,80,0.00,,CLR,0.00,VWS V14.01,2013-04-28 05:37:00,
2013-04-28 01:42:00,30.2,24.8,30.34,South,185,0.0,0.0,80,0.00,,CLR,0.00,VWS V14.01,2013-04-28 05:42:00,
2013-04-28 01:47:00,30.0,24.6,30.34,South,185,0.0,0.0,80,0.00,,CLR,0.00,VWS V14.01,2013-04-28 05:47:00,
2013-04-28 01:52:00,30.0,24.6,30.34,South,185,0.0,0.0,80,0.00,,CLR,0.00,VWS V14.01,2013-04-28 05:52:00,
2013-04-28 01:57:00,29.8,24.7,30.34,South,185,0.0,0.0,81,0.00,,CLR,0.00,VWS V14.01,2013-04-28 05:57:00,
2013-04-28 02:02:00,29.8,24.7,30.34,South,185,0.0,0.0,81,0.00,,CLR,0.00,VWS V14.01,2013-04-28 06:02:00,
2013-04-28 02:07:00,29.8,24.7,30.34,South,185,0.0,0.0,81,0.00,,CLR,0.00,VWS V14.01,2013-04-28 06:07:00,
2013-04-28 02:12:00,29.8,24.7,30.34,South,185,0.0,0.0,81,0.00,,CLR,0.00,VWS V14.01,2013-04-28 06:12:00,
2013-04-28 02:18:00,29.7,24.9,30.34,South,185,0.0,0.0,82,0.00,,CLR,0.00,VWS V14.01,2013-04-28 06:18:00,
2013-04-28 02:23:00,29.7,24.9,30.34,South,185,0.0,0.0,82,0.00,,CLR,0.00,VWS V14.01,2013-04-28 06:23:00,
2013-04-28 02:28:00,29.5,24.7,30.34,South,185,0.0,0.0,82,0.00,,CLR,0.00,VWS V14.01,2013-04-28 06:28:00,
2013-04-28 02:33:00,29.5,24.7,30.34,South,185,0.0,0.0,82,0.00,,CLR,0.00,VWS V14.01,2013-04-28 06:33:00,
2013-04-28 02:38:00,29.5,25.0,30.34,South,185,0.0,0.0,83,0.00,,CLR,0.00,VWS V14.01,2013-04-28 06:38:00,
2013-04-28 02:43:00,29.5,25.0,30.34,South,185,0.0,0.0,83,0.00,,CLR,0.00,VWS V14.01,2013-04-28 06:43:00,
2013-04-28 02:48:00,29.3,24.8,30.34,South,185,0.0,0.0,83,0.00,,CLR,0.00,VWS V14.01,2013-04-28 06:48:00,
2013-04-28 02:53:00,29.3,24.8,30.34,South,185,0.0,0.0,83,0.00,,CLR,0.00,VWS V14.01,2013-04-28 06:53:00,
2013-04-28 02:58:00,29.3,24.8,30.34,South,185,0.0,0.0,83,0.00,,CLR,0.00,VWS V14.01,2013-04-28 06:58:00,
2013-04-28 03:03:00,29.1,24.6,30.34,South,185,0.0,0.0,83,0.00,,CLR,0.00,VWS V14.01,2013-04-28 07:03:00,
2013-04-28 03:08:00,29.1,24.6,30.34,South,185,0.0,0.0,83,0.00,,CLR,0.00,VWS V14.01,2013-04-28 07:08:00,
2013-04-28 03:13:00,29.1,24.6,30.34,South,185,0.0,0.0,83,0.00,,CLR,0.00,VWS V14.01,2013-04-28 07:13:00,
2013-04-28 03:18:00,28.9,24.7,30.34,South,185,0.0,0.0,84,0.00,,CLR,0.00,VWS V14.01,2013-04-28 07:18:00,
2013-04-28 03:23:00,28.9,24.7,30.34,South,185,0.0,0.0,84,0.00,,CLR,0.00,VWS V14.01,2013-04-28 07:23:00,
2013-04-28 03:28:00,28.9,24.7,30.34,South,185,0.0,0.0,84,0.00,,CLR,0.00,VWS V14.01,2013-04-28 07:28:00,
2013-04-28 03:33:00,28.8,24.5,30.34,South,185,0.0,0.0,84,0.00,,CLR,0.00,VWS V14.01,2013-04-28 07:33:00,
2013-04-28 03:38:00,28.8,24.8,30.34,South,185,0.0,0.0,85,0.00,,CLR,0.00,VWS V14.01,2013-04-28 07:38:00,
2013-04-28 03:43:00,28.8,24.8,30.34,South,185,0.0,0.0,85,0.00,,CLR,0.00,VWS V14.01,2013-04-28 07:43:00,
2013-04-28 03:48:00,28.8,24.8,30.34,South,185,0.0,0.0,85,0.00,,CLR,0.00,VWS V14.01,2013-04-28 07:48:00,
2013-04-28 03:53:00,28.8,24.8,30.34,South,185,0.0,0.0,85,0.00,,CLR,0.00,VWS V14.01,2013-04-28 07:53:00,
2013-04-28 03:58:00,28.8,24.8,30.34,South,185,0.0,0.0,85,0.00,,CLR,0.00,VWS V14.01,2013-04-28 07:58:00,
2013-04-28 04:03:00,28.8,24.8,30.34,South,185,0.0,0.0,85,0.00,,CLR,0.00,VWS V14.01,2013-04-28 08:03:00,
2013-04-28 04:08:00,28.8,25.1,30.34,South,185,0.0,0.0,86,0.00,,CLR,0.00,VWS V14.01,2013-04-28 08:08:00,
2013-04-28 04:13:00,28.8,25.1,30.34,South,185,0.0,0.0,86,0.00,,CLR,0.00,VWS V14.01,2013-04-28 08:13:00,
2013-04-28 04:18:00,28.8,25.1,30.34,South,185,0.0,0.0,86,0.00,,CLR,0.00,VWS V14.01,2013-04-28 08:18:00,
2013-04-28 04:23:00,28.8,25.1,30.34,South,185,0.0,0.0,86,0.00,,CLR,0.00,VWS V14.01,2013-04-28 08:23:00,
2013-04-28 04:28:00,28.8,25.1,30.34,South,185,0.0,0.0,86,0.00,,CLR,0.00,VWS V14.01,2013-04-28 08:28:00,
2013-04-28 04:33:00,28.8,25.1,30.34,South,185,0.0,0.0,86,0.00,,CLR,0.00,VWS V14.01,2013-04-28 08:33:00,
2013-04-28 04:39:00,28.8,25.1,30.34,South,189,0.0,0.0,86,0.00,,CLR,0.00,VWS V14.01,2013-04-28 08:39:00,
2013-04-28 04:44:00,28.8,25.4,30.34,South,189,0.0,0.0,87,0.00,,CLR,0.00,VWS V14.01,2013-04-28 08:44:00,
2013-04-28 04:49:00,28.8,25.4,30.34,South,189,0.0,0.0,87,0.00,,CLR,0.00,VWS V14.01,2013-04-28 08:49:00,
2013-04-28 04:54:00,28.8,25.4,30.34,South,189,0.0,0.0,87,0.00,,CLR,0.00,VWS V14.01,2013-04-28 08:54:00,
2013-04-28 04:59:00,28.6,25.2,30.34,South,189,0.0,0.0,87,0.00,,CLR,0.00,VWS V14.01,2013-04-28 08:59:00,
2013-04-28 05:04:00,28.6,25.2,30.34,South,189,0.0,0.0,87,0.00,,CLR,0.00,VWS V14.01,2013-04-28 09:04:00,
2013-04-28 05:09:00,28.8,25.4,30.34,SSW,195,0.0,0.0,87,0.00,,CLR,0.00,VWS V14.01,2013-04-28 09:09:00,
2013-04-28 05:14:00,28.8,25.4,30.34,NW,323,0.0,0.0,87,0.00,,CLR,0.00,VWS V14.01,2013-04-28 09:14:00,
2013-04-28 05:19:00,28.8,25.4,30.34,NW,323,0.0,0.0,87,0.00,,CLR,0.00,VWS V14.01,2013-04-28 09:19:00,
2013-04-28 05:24:00,28.8,25.7,30.34,NW,323,0.0,0.0,88,0.00,,CLR,0.00,VWS V14.01,2013-04-28 09:24:00,
2013-04-28 05:29:00,28.8,25.7,30.34,NW,323,0.0,0.0,88,0.00,,CLR,0.00,VWS V14.01,2013-04-28 09:29:00,
2013-04-28 05:34:00,28.8,25.7,30.34,NW,323,0.0,0.0,88,0.00,,CLR,0.00,VWS V14.01,2013-04-28 09:34:00,
2013-04-28 05:39:00,28.8,25.7,30.34,NW,323,0.0,0.0,88,0.00,,CLR,0.00,VWS V14.01,2013-04-28 09:39:00,
2013-04-28 05:44:00,28.6,25.5,30.34,NW,323,0.0,0.0,88,0.00,,CLR,0.00,VWS V14.01,2013-04-28 09:44:00,
2013-04-28 05:49:00,28.4,25.3,30.34,NW,323,0.0,0.0,88,0.00,,CLR,0.00,VWS V14.01,2013-04-28 09:49:00,
2013-04-28 05:54:00,28.4,25.3,30.34,NW,324,0.0,0.0,88,0.00,,CLR,0.00,VWS V14.01,2013-04-28 09:54:00,
2013-04-28 05:59:00,28.2,25.1,30.28,NW,324,0.0,0.0,88,0.00,,CLR,0.00,VWS V14.01,2013-04-28 09:59:00,
2013-04-28 06:04:00,28.0,25.2,30.28,NW,324,0.0,0.0,89,0.00,,CLR,0.00,VWS V14.01,2013-04-28 10:04:00,
2013-04-28 06:09:00,28.2,25.4,30.28,NW,324,0.0,0.0,89,0.00,,CLR,0.00,VWS V14.01,2013-04-28 10:09:00,
2013-04-28 06:14:00,28.2,25.4,30.28,NW,324,0.0,0.0,89,0.00,,CLR,0.00,VWS V14.01,2013-04-28 10:14:00,
2013-04-28 06:19:00,28.2,25.4,30.28,NW,324,0.0,0.0,89,0.00,,CLR,0.00,VWS V14.01,2013-04-28 10:19:00,
2013-04-28 06:24:00,28.4,25.6,30.28,NW,324,0.0,0.0,89,0.00,,CLR,0.00,VWS V14.01,2013-04-28 10:24:00,
2013-04-28 06:29:00,28.2,25.4,30.28,NW,324,0.0,0.0,89,0.00,,CLR,0.00,VWS V14.01,2013-04-28 10:29:00,
2013-04-28 06:34:00,28.4,25.6,30.28,NW,324,0.0,0.0,89,0.00,,CLR,0.00,VWS V14.01,2013-04-28 10:34:00,
2013-04-28 06:39:00,28.4,25.9,30.28,NW,325,0.0,0.0,90,0.00,,CLR,0.00,VWS V14.01,2013-04-28 10:39:00,
2013-04-28 06:44:00,28.6,25.8,30.28,NW,325,0.0,0.0,89,0.00,,CLR,0.00,VWS V14.01,2013-04-28 10:44:00,
2013-04-28 06:49:00,28.8,26.2,30.28,NW,325,0.0,0.0,90,0.00,,CLR,0.00,VWS V14.01,2013-04-28 10:49:00,
2013-04-28 06:55:00,28.8,26.2,30.28,NW,325,0.0,0.0,90,0.00,,CLR,0.00,VWS V14.01,2013-04-28 10:55:00,
2013-04-28 07:00:00,28.9,26.4,30.28,NW,325,0.0,0.0,90,0.00,,CLR,0.00,VWS V14.01,2013-04-28 11:00:00,
2013-04-28 07:05:00,29.5,26.9,30.28,NW,325,0.0,0.0,90,0.00,,CLR,0.00,VWS V14.01,2013-04-28 11:05:00,
2013-04-28 07:10:00,29.8,27.3,30.28,NNW,335,0.0,0.0,90,0.00,,CLR,0.00,VWS V14.01,2013-04-28 11:10:00,
2013-04-28 07:15:00,29.8,27.3,30.28,NNW,335,0.0,0.0,90,0.00,,CLR,0.00,VWS V14.01,2013-04-28 11:15:00,
2013-04-28 07:20:00,30.6,28.0,30.28,NNW,335,0.0,0.0,90,0.00,,CLR,0.00,VWS V14.01,2013-04-28 11:20:00,
2013-04-28 07:25:00,31.1,28.8,30.28,NNW,335,0.0,0.0,91,0.00,,CLR,0.00,VWS V14.01,2013-04-28 11:25:00,
2013-04-28 07:30:00,31.1,28.8,30.28,NNW,335,0.0,0.0,91,0.00,,CLR,0.00,VWS V14.01,2013-04-28 11:30:00,
2013-04-28 07:35:00,33.1,31.0,30.28,NNW,335,0.0,0.0,92,0.00,,CLR,0.00,VWS V14.01,2013-04-28 11:35:00,
2013-04-28 07:40:00,34.3,32.5,30.28,NNW,335,0.0,0.0,93,0.00,,CLR,0.00,VWS V14.01,2013-04-28 11:40:00,
2013-04-28 07:45:00,34.3,32.5,30.28,NNW,335,0.0,0.0,93,0.00,,CLR,0.00,VWS V14.01,2013-04-28 11:45:00,
2013-04-28 07:50:00,36.1,34.6,30.28,NNW,335,0.0,0.0,94,0.00,,CLR,0.00,VWS V14.01,2013-04-28 11:50:00,
2013-04-28 07:55:00,37.4,36.1,30.28,NNW,335,0.0,0.0,95,0.00,,CLR,0.00,VWS V14.01,2013-04-28 11:55:00,
2013-04-28 08:00:00,38.5,37.2,30.28,NNW,335,0.0,0.0,95,0.00,,CLR,0.00,VWS V14.01,2013-04-28 12:00:00,
2013-04-28 08:05:00,40.1,38.8,30.28,NNW,335,0.0,0.0,95,0.00,,CLR,0.00,VWS V14.01,2013-04-28 12:05:00,
2013-04-28 08:10:00,40.5,39.1,30.28,NNW,335,0.0,0.0,95,0.00,,CLR,0.00,VWS V14.01,2013-04-28 12:10:00,
2013-04-28 08:15:00,40.5,39.1,30.28,NNW,335,0.0,0.0,95,0.00,,CLR,0.00,VWS V14.01,2013-04-28 12:15:00,
2013-04-28 08:20:00,42.6,41.6,30.28,NNW,335,0.0,0.0,96,0.00,,CLR,0.00,VWS V14.01,2013-04-28 12:20:00,
2013-04-28 08:25:00,44.1,42.7,30.28,NNW,335,0.0,0.0,95,0.00,,CLR,0.00,VWS V14.01,2013-04-28 12:25:00,
2013-04-28 08:30:00,44.4,43.1,30.28,NNW,335,0.0,0.0,95,0.00,,CLR,0.00,VWS V14.01,2013-04-28 12:30:00,
2013-04-28 08:35:00,44.6,43.3,30.28,NNW,335,0.0,0.0,95,0.00,,CLR,0.00,VWS V14.01,2013-04-28 12:35:00,
2013-04-28 08:40:00,45.0,43.3,30.28,NNW,335,0.0,0.0,94,0.00,,CLR,0.00,VWS V14.01,2013-04-28 12:40:00,
2013-04-28 08:45:00,45.0,43.3,30.28,NNW,335,0.0,0.0,94,0.00,,CLR,0.00,VWS V14.01,2013-04-28 12:45:00,
2013-04-28 08:50:00,45.7,43.8,30.28,NNW,335,0.0,0.0,93,0.00,,CLR,0.00,VWS V14.01,2013-04-28 12:50:00,
2013-04-28 08:55:00,45.9,44.0,30.28,NNW,335,0.0,0.0,93,0.00,,CLR,0.00,VWS V14.01,2013-04-28 12:55:00,
2013-04-28 09:00:00,46.2,44.0,30.28,NNW,335,0.0,0.0,92,0.00,,CLR,0.00,VWS V14.01,2013-04-28 13:00:00,
2013-04-28 09:05:00,46.4,43.6,30.28,NNW,335,0.0,0.0,90,0.00,,CLR,0.00,VWS V14.01,2013-04-28 13:05:00,
2013-04-28 09:10:00,46.6,43.2,30.28,NNW,335,0.0,0.0,88,0.00,,CLR,0.00,VWS V14.01,2013-04-28 13:10:00,
2013-04-28 09:15:00,46.6,43.2,30.28,NNW,335,0.0,0.0,88,0.00,,CLR,0.00,VWS V14.01,2013-04-28 13:15:00,
2013-04-28 09:20:00,47.5,43.8,30.28,SSE,162,0.0,0.0,87,0.00,,CLR,0.00,VWS V14.01,2013-04-28 13:20:00,
2013-04-28 09:25:00,48.9,44.0,30.28,WSW,248,0.0,0.0,83,0.00,,CLR,0.00,VWS V14.01,2013-04-28 13:25:00,
2013-04-28 09:31:00,50.4,41.7,30.28,North,8,5.4,5.4,72,0.00,,CLR,0.00,VWS V14.01,2013-04-28 13:31:00,
2013-04-28 09:36:00,51.1,36.0,30.28,NE,45,6.3,6.3,56,0.00,,CLR,0.00,VWS V14.01,2013-04-28 13:36:00,
2013-04-28 09:41:00,51.1,36.0,30.28,NNE,22,0.0,0.0,56,0.00,,CLR,0.00,VWS V14.01,2013-04-28 13:41:00,
2013-04-28 09:46:00,52.7,34.6,30.28,North,4,3.1,3.1,50,0.00,,CLR,0.00,VWS V14.01,2013-04-28 13:46:00,
2013-04-28 09:51:00,53.8,31.8,30.28,NNE,29,0.0,0.0,43,0.00,,CLR,0.00,VWS V14.01,2013-04-28 13:51:00,
2013-04-28 09:56:00,54.0,32.6,30.28,North,353,0.0,0.0,44,0.00,,CLR,0.00,VWS V14.01,2013-04-28 13:56:00,
2013-04-28 10:01:00,54.7,32.1,30.28,NNW,348,0.0,0.0,42,0.00,,CLR,0.00,VWS V14.01,2013-04-28 14:01:00,
2013-04-28 10:06:00,55.0,32.4,30.28,SSW,199,0.0,0.0,42,0.00,,CLR,0.00,VWS V14.01,2013-04-28 14:06:00,
2013-04-28 10:11:00,55.6,32.9,30.28,SSW,199,0.0,0.0,42,0.00,,CLR,0.00,VWS V14.01,2013-04-28 14:11:00,
2013-04-28 10:16:00,57.0,34.8,30.28,SSW,199,0.0,0.0,43,0.00,,CLR,0.00,VWS V14.01,2013-04-28 14:16:00,
2013-04-28 10:21:00,57.6,34.1,30.28,South,176,0.0,0.0,41,0.00,,CLR,0.00,VWS V14.01,2013-04-28 14:21:00,
2013-04-28 10:26:00,58.5,34.2,30.28,South,170,3.1,3.1,40,0.00,,CLR,0.00,VWS V14.01,2013-04-28 14:26:00,
2013-04-28 10:31:00,59.2,34.9,30.28,South,170,0.0,0.0,40,0.00,,CLR,0.00,VWS V14.01,2013-04-28 14:31:00,
2013-04-28 10:36:00,60.6,35.5,30.28,South,181,0.0,0.0,39,0.00,,CLR,0.00,VWS V14.01,2013-04-28 14:36:00,
2013-04-28 10:41:00,61.5,34.3,30.28,NNE,33,0.0,0.0,36,0.00,,CLR,0.00,VWS V14.01,2013-04-28 14:41:00,
2013-04-28 10:46:00,61.7,34.5,30.28,SSE,162,0.0,0.0,36,0.00,,CLR,0.00,VWS V14.01,2013-04-28 14:46:00,
2013-04-28 10:51:00,63.5,35.4,30.28,SSE,162,0.0,0.0,35,0.00,,CLR,0.00,VWS V14.01,2013-04-28 14:51:00,
2013-04-28 10:56:00,63.9,35.7,30.28,South,171,0.0,0.0,35,0.00,,CLR,0.00,VWS V14.01,2013-04-28 14:56:00,
2013-04-28 11:01:00,64.6,35.6,30.28,SSE,147,0.0,0.0,34,0.00,,CLR,0.00,VWS V14.01,2013-04-28 15:01:00,
2013-04-28 11:06:00,64.8,35.8,30.28,SSE,155,0.0,2.2,34,0.00,,CLR,0.00,VWS V14.01,2013-04-28 15:06:00,
2013-04-28 11:11:00,65.1,35.3,30.28,SSE,161,0.0,0.0,33,0.00,,CLR,0.00,VWS V14.01,2013-04-28 15:11:00,
2013-04-28 11:16:00,65.8,36.0,30.28,SSE,156,0.0,0.0,33,0.00,,CLR,0.00,VWS V14.01,2013-04-28 15:16:00,
2013-04-28 11:21:00,66.0,36.1,30.28,SSE,163,3.6,4.0,33,0.00,,CLR,0.00,VWS V14.01,2013-04-28 15:21:00,
2013-04-28 11:26:00,66.6,35.8,30.28,SSE,162,4.9,4.9,32,0.00,,CLR,0.00,VWS V14.01,2013-04-28 15:26:00,
2013-04-28 11:31:00,66.6,35.8,30.28,SE,131,0.0,0.0,32,0.00,,CLR,0.00,VWS V14.01,2013-04-28 15:31:00,
2013-04-28 11:36:00,66.7,35.2,30.28,South,172,0.0,0.0,31,0.00,,CLR,0.00,VWS V14.01,2013-04-28 15:36:00,
2013-04-28 11:41:00,67.3,34.8,30.28,South,179,2.2,2.2,30,0.00,,CLR,0.00,VWS V14.01,2013-04-28 15:41:00,
2013-04-28 11:46:00,67.5,34.1,30.28,South,176,5.4,5.4,29,0.00,,CLR,0.00,VWS V14.01,2013-04-28 15:46:00,
2013-04-28 11:51:00,67.6,34.3,30.28,SSW,207,3.1,3.1,29,0.00,,CLR,0.00,VWS V14.01,2013-04-28 15:51:00,
2013-04-28 11:56:00,68.0,33.7,30.28,ESE,106,0.0,3.6,28,0.00,,CLR,0.00,VWS V14.01,2013-04-28 15:56:00,
2013-04-28 12:01:00,67.5,32.3,30.28,East,87,0.0,0.0,27,0.00,,CLR,0.00,VWS V14.01,2013-04-28 16:01:00,
2013-04-28 12:06:00,66.9,32.8,30.28,South,176,4.9,4.9,28,0.00,,CLR,0.00,VWS V14.01,2013-04-28 16:06:00,
2013-04-28 12:11:00,67.5,33.2,30.28,SSE,152,3.1,3.1,28,0.00,,CLR,0.00,VWS V14.01,2013-04-28 16:11:00,
2013-04-28 12:16:00,68.5,33.3,30.28,SSW,208,2.7,2.7,27,0.00,,CLR,0.00,VWS V14.01,2013-04-28 16:16:00,
2013-04-28 12:21:00,68.7,33.4,30.28,South,189,0.0,0.0,27,0.00,,CLR,0.00,VWS V14.01,2013-04-28 16:21:00,
2013-04-28 12:27:00,69.4,34.0,30.28,SE,137,2.2,2.2,27,0.00,,CLR,0.00,VWS V14.01,2013-04-28 16:27:00,
2013-04-28 12:32:00,69.4,33.1,30.28,SE,129,4.0,4.0,26,0.00,,CLR,0.00,VWS V14.01,2013-04-28 16:32:00,
2013-04-28 12:37:00,68.4,32.2,30.28,South,182,0.0,3.1,26,0.00,,CLR,0.00,VWS V14.01,2013-04-28 16:37:00,
2013-04-28 12:42:00,67.1,31.1,30.28,NNE,29,4.9,4.9,26,0.00,,CLR,0.00,VWS V14.01,2013-04-28 16:42:00,
2013-04-28 12:47:00,66.6,31.6,30.28,ESE,115,0.0,0.0,27,0.00,,CLR,0.00,VWS V14.01,2013-04-28 16:47:00,
2013-04-28 12:52:00,65.5,30.6,30.28,ESE,105,0.0,0.0,27,0.00,,CLR,0.00,VWS V14.01,2013-04-28 16:52:00,
2013-04-28 12:57:00,65.5,30.6,30.28,East,95,2.7,2.7,27,0.00,,CLR,0.00,VWS V14.01,2013-04-28 16:57:00,
2013-04-28 13:02:00,66.9,31.9,30.28,East,95,2.7,2.7,27,0.00,,CLR,0.00,VWS V14.01,2013-04-28 17:02:00,
2013-04-28 13:07:00,66.9,31.9,30.28,South,189,3.1,3.1,27,0.00,,CLR,0.00,VWS V14.01,2013-04-28 17:07:00,
2013-04-28 13:12:00,68.5,32.3,30.28,SSE,166,4.0,4.0,26,0.00,,CLR,0.00,VWS V14.01,2013-04-28 17:12:00,
2013-04-28 13:17:00,67.5,31.4,30.28,South,170,0.0,0.0,26,0.00,,CLR,0.00,VWS V14.01,2013-04-28 17:17:00,
2013-04-28 13:22:00,67.1,31.1,30.28,SSE,157,4.9,4.9,26,0.00,,CLR,0.00,VWS V14.01,2013-04-28 17:22:00,
2013-04-28 13:27:00,66.6,30.6,30.28,SSE,165,0.0,0.0,26,0.00,,CLR,0.00,VWS V14.01,2013-04-28 17:27:00,
2013-04-28 13:32:00,66.7,30.8,30.28,South,169,0.0,0.0,26,0.00,,CLR,0.00,VWS V14.01,2013-04-28 17:32:00,
2013-04-28 13:37:00,68.0,31.9,30.28,South,177,3.1,3.1,26,0.00,,CLR,0.00,VWS V14.01,2013-04-28 17:37:00,
2013-04-28 13:42:00,68.0,31.9,30.28,South,182,2.7,2.7,26,0.00,,CLR,0.00,VWS V14.01,2013-04-28 17:42:00,
2013-04-28 13:47:00,70.5,33.0,30.28,South,178,4.0,4.0,25,0.00,,CLR,0.00,VWS V14.01,2013-04-28 17:47:00,
2013-04-28 13:52:00,70.9,33.3,30.28,SSW,210,0.0,0.0,25,0.00,,CLR,0.00,VWS V14.01,2013-04-28 17:52:00,
2013-04-28 13:57:00,70.9,33.3,30.28,SSE,164,4.5,4.5,25,0.00,,CLR,0.00,VWS V14.01,2013-04-28 17:57:00,
2013-04-28 14:02:00,69.3,31.0,30.28,SSW,210,0.0,0.0,24,0.00,,CLR,0.00,VWS V14.01,2013-04-28 18:02:00,
2013-04-28 14:07:00,67.6,30.6,30.28,SSW,195,3.6,3.6,25,0.00,,CLR,0.00,VWS V14.01,2013-04-28 18:07:00,
2013-04-28 14:12:00,66.9,30.0,30.28,SSW,210,2.7,2.7,25,0.00,,CLR,0.00,VWS V14.01,2013-04-28 18:12:00,
2013-04-28 14:17:00,66.6,29.7,30.28,SSW,210,2.7,2.7,25,0.00,,CLR,0.00,VWS V14.01,2013-04-28 18:17:00,
2013-04-28 14:22:00,66.4,29.5,30.28,SSW,205,0.0,0.0,25,0.00,,CLR,0.00,VWS V14.01,2013-04-28 18:22:00,
2013-04-28 14:27:00,66.6,30.6,30.28,South,178,0.0,0.0,26,0.00,,CLR,0.00,VWS V14.01,2013-04-28 18:27:00,
2013-04-28 14:32:00,66.9,31.0,30.28,SSE,163,3.1,3.1,26,0.00,,CLR,0.00,VWS V14.01,2013-04-28 18:32:00,
2013-04-28 14:37:00,66.9,31.0,30.28,SSE,164,3.6,3.6,26,0.00,,CLR,0.00,VWS V14.01,2013-04-28 18:37:00,
2013-04-28 14:42:00,67.1,31.1,30.28,SSE,163,0.0,0.0,26,0.00,,FEW070,0.00,VWS V14.01,2013-04-28 18:42:00,
2013-04-28 14:47:00,67.1,31.1,30.28,SSE,164,0.0,0.0,26,0.00,,FEW070,0.00,VWS V14.01,2013-04-28 18:47:00,
2013-04-28 14:52:00,67.3,31.2,30.28,SSE,163,0.0,0.0,26,0.00,,FEW070,0.00,VWS V14.01,2013-04-28 18:52:00,
2013-04-28 14:58:00,66.9,30.0,30.28,SSE,164,0.0,0.0,25,0.00,,FEW070,0.00,VWS V14.01,2013-04-28 18:58:00,
2013-04-28 15:03:00,66.7,29.8,30.28,SSE,164,0.0,0.0,25,0.00,,FEW070,0.00,VWS V14.01,2013-04-28 19:03:00,
2013-04-28 15:08:00,66.7,29.8,30.28,SSE,166,0.0,0.0,25,0.00,,FEW070,0.00,VWS V14.01,2013-04-28 19:08:00,
2013-04-28 15:13:00,66.9,30.0,30.28,SSE,166,0.0,0.0,25,0.00,,FEW070,0.00,VWS V14.01,2013-04-28 19:13:00,
2013-04-28 15:18:00,66.7,29.8,30.28,SSE,166,0.0,0.0,25,0.00,,FEW070,0.00,VWS V14.01,2013-04-28 19:18:00,
2013-04-28 15:23:00,66.7,29.8,30.28,SSE,166,0.0,0.0,25,0.00,,FEW070,0.00,VWS V14.01,2013-04-28 19:23:00,
2013-04-28 15:28:00,67.5,31.4,30.28,SSE,166,0.0,0.0,26,0.00,,FEW070,0.00,VWS V14.01,2013-04-28 19:28:00,
2013-04-28 15:33:00,67.5,31.4,30.28,North,10,5.8,5.8,26,0.00,,FEW070,0.00,VWS V14.01,2013-04-28 19:33:00,
2013-04-28 15:38:00,69.3,32.0,30.28,NW,322,4.0,4.0,25,0.00,,FEW070,0.00,VWS V14.01,2013-04-28 19:38:00,
2013-04-28 15:43:00,68.2,31.0,30.19,ESE,116,3.1,3.1,25,0.00,,BKN090,0.00,VWS V14.01,2013-04-28 19:43:00,
2013-04-28 15:48:00,67.8,30.7,30.19,SSE,163,3.6,3.6,25,0.00,,BKN090,0.00,VWS V14.01,2013-04-28 19:48:00,
2013-04-28 15:53:00,67.5,30.4,30.19,SE,143,0.0,0.0,25,0.00,,BKN090,0.00,VWS V14.01,2013-04-28 19:53:00,
2013-04-28 15:58:00,67.6,30.6,30.19,SSE,152,0.0,0.0,25,0.00,,BKN090,0.00,VWS V14.01,2013-04-28 19:58:00,
2013-04-28 16:03:00,68.2,31.0,30.19,South,191,0.0,0.0,25,0.00,,BKN090,0.00,VWS V14.01,2013-04-28 20:03:00,
2013-04-28 16:08:00,68.2,31.0,30.16,NE,46,3.6,3.6,25,0.00,,BKN090,0.00,VWS V14.01,2013-04-28 20:08:00,
2013-04-28 16:13:00,68.0,29.9,30.16,North,6,0.0,0.0,24,0.00,,BKN090,0.00,VWS V14.01,2013-04-28 20:13:00,
2013-04-28 16:18:00,67.3,30.3,30.16,NNW,342,3.1,3.1,25,0.00,,BKN090,0.00,VWS V14.01,2013-04-28 20:18:00,
2013-04-28 16:23:00,67.1,30.1,30.16,North,7,0.0,0.0,25,0.00,,BKN090,0.00,VWS V14.01,2013-04-28 20:23:00,
2013-04-28 16:28:00,66.9,30.0,30.16,North,7,0.0,0.0,25,0.00,,BKN090,0.00,VWS V14.01,2013-04-28 20:28:00,
2013-04-28 16:33:00,66.9,30.0,30.16,North,7,0.0,0.0,25,0.00,,BKN090,0.00,VWS V14.01,2013-04-28 20:33:00,
2013-04-28 16:38:00,66.9,30.0,30.16,North,7,0.0,0.0,25,0.00,,BKN090,0.00,VWS V14.01,2013-04-28 20:38:00,
2013-04-28 16:43:00,66.9,30.0,30.16,South,172,0.0,0.0,25,0.00,,BKN090,0.00,VWS V14.01,2013-04-28 20:43:00,
2013-04-28 16:48:00,66.9,30.0,30.16,SSE,158,0.0,0.0,25,0.00,,BKN090,0.00,VWS V14.01,2013-04-28 20:48:00,
2013-04-28 16:53:00,66.9,30.0,30.16,East,96,0.0,0.0,25,0.00,,BKN090,0.00,VWS V14.01,2013-04-28 20:53:00,
2013-04-28 16:58:00,66.9,30.0,30.16,SSE,157,3.6,3.6,25,0.00,,BKN090,0.00,VWS V14.01,2013-04-28 20:58:00,
2013-04-28 17:03:00,66.9,30.0,30.16,ESE,106,0.0,0.0,25,0.00,,OVC095,0.00,VWS V14.01,2013-04-28 21:03:00,
2013-04-28 17:08:00,66.9,30.0,30.16,South,185,3.6,3.6,25,0.00,,OVC095,0.00,VWS V14.01,2013-04-28 21:08:00,
2013-04-28 17:13:00,67.3,30.3,30.16,SSE,160,5.8,5.8,25,0.00,,OVC095,0.00,VWS V14.01,2013-04-28 21:13:00,
2013-04-28 17:18:00,66.9,30.0,30.16,South,171,4.0,4.0,25,0.00,,OVC095,0.00,VWS V14.01,2013-04-28 21:18:00,
2013-04-28 17:23:00,66.7,29.8,30.16,SSE,165,0.0,0.0,25,0.00,,OVC095,0.00,VWS V14.01,2013-04-28 21:23:00,
2013-04-28 17:28:00,66.4,29.5,30.16,SSE,165,0.0,0.0,25,0.00,,OVC095,0.00,VWS V14.01,2013-04-28 21:28:00,
2013-04-28 17:33:00,66.4,29.5,30.16,South,169,3.1,3.1,25,0.00,,OVC095,0.00,VWS V14.01,2013-04-28 21:33:00,
2013-04-28 17:38:00,66.2,29.4,30.16,South,169,0.0,3.1,25,0.00,,OVC095,0.00,VWS V14.01,2013-04-28 21:38:00,
2013-04-28 17:43:00,66.2,29.4,30.16,SSE,162,0.0,0.0,25,0.00,,BKN100,0.00,VWS V14.01,2013-04-28 21:43:00,
2013-04-28 17:49:00,66.2,29.4,30.16,SSE,166,0.0,0.0,25,0.00,,BKN100,0.00,VWS V14.01,2013-04-28 21:49:00,
2013-04-28 17:54:00,66.4,29.5,30.16,East,88,0.0,0.0,25,0.00,,BKN100,0.00,VWS V14.01,2013-04-28 21:54:00,
2013-04-28 17:59:00,66.2,29.4,30.16,East,97,0.0,0.0,25,0.00,,BKN100,0.00,VWS V14.01,2013-04-28 21:59:00,
2013-04-28 18:04:00,66.0,29.2,30.16,SE,128,0.0,0.0,25,0.00,,BKN100,0.00,VWS V14.01,2013-04-28 22:04:00,
2013-04-28 18:09:00,66.0,29.2,30.16,ESE,115,0.0,0.0,25,0.00,,BKN100,0.00,VWS V14.01,2013-04-28 22:09:00,
2013-04-28 18:14:00,66.2,29.4,30.16,SSE,158,0.0,0.0,25,0.00,,BKN100,0.00,VWS V14.01,2013-04-28 22:14:00,
2013-04-28 18:19:00,66.6,29.7,30.16,SE,134,0.0,0.0,25,0.00,,BKN100,0.00,VWS V14.01,2013-04-28 22:19:00,
2013-04-28 18:24:00,66.6,29.7,30.16,SSE,165,4.0,4.0,25,0.00,,BKN100,0.00,VWS V14.01,2013-04-28 22:24:00,
2013-04-28 18:29:00,65.8,29.1,30.13,East,101,2.7,2.7,25,0.00,,BKN100,0.00,VWS V14.01,2013-04-28 22:29:00,
2013-04-28 18:34:00,65.3,28.6,30.13,East,100,0.0,0.0,25,0.00,,BKN100,0.00,VWS V14.01,2013-04-28 22:34:00,
2013-04-28 18:39:00,65.1,28.5,30.13,East,100,0.0,0.0,25,0.00,,BKN100,0.00,VWS V14.01,2013-04-28 22:39:00,
2013-04-28 18:44:00,64.8,28.1,30.13,ESE,109,0.0,0.0,25,0.00,,OVC100,0.00,VWS V14.01,2013-04-28 22:44:00,
2013-04-28 18:49:00,64.8,28.1,30.13,SE,138,0.0,0.0,25,0.00,,OVC100,0.00,VWS V14.01,2013-04-28 22:49:00,
2013-04-28 18:54:00,64.2,28.6,30.13,East,95,0.0,0.0,26,0.00,,OVC100,0.00,VWS V14.01,2013-04-28 22:54:00,
2013-04-28 18:59:00,64.2,28.6,30.13,ESE,111,0.0,0.0,26,0.00,,OVC100,0.00,VWS V14.01,2013-04-28 22:59:00,
2013-04-28 19:04:00,64.0,28.5,30.13,ESE,104,0.0,0.0,26,0.00,,OVC100,0.00,VWS V14.01,2013-04-28 23:04:00,
2013-04-28 19:09:00,64.0,28.5,30.13,ESE,103,0.0,0.0,26,0.00,,OVC100,0.00,VWS V14.01,2013-04-28 23:09:00,
2013-04-28 19:14:00,63.3,27.9,30.13,ESE,103,0.0,0.0,26,0.00,,OVC100,0.00,VWS V14.01,2013-04-28 23:14:00,
2013-04-28 19:19:00,63.0,27.6,30.13,ESE,103,0.0,0.0,26,0.00,,OVC100,0.00,VWS V14.01,2013-04-28 23:19:00,
2013-04-28 19:24:00,63.0,27.6,30.13,ESE,103,0.0,0.0,26,0.00,,OVC100,0.00,VWS V14.01,2013-04-28 23:24:00,
2013-04-28 19:29:00,61.7,27.4,30.13,ESE,103,0.0,0.0,27,0.00,,OVC100,0.00,VWS V14.01,2013-04-28 23:29:00,
2013-04-28 19:34:00,61.3,27.1,30.13,ESE,103,0.0,0.0,27,0.00,,OVC100,0.00,VWS V14.01,2013-04-28 23:34:00,
2013-04-28 19:39:00,61.2,27.8,30.13,ESE,103,0.0,0.0,28,0.00,,OVC100,0.00,VWS V14.01,2013-04-28 23:39:00,
2013-04-28 19:44:00,60.8,27.5,30.13,ESE,103,0.0,0.0,28,0.00,,BKN100,0.00,VWS V14.01,2013-04-28 23:44:00,
2013-04-28 19:50:00,60.6,28.2,30.13,ESE,103,0.0,0.0,29,0.00,,BKN100,0.00,VWS V14.01,2013-04-28 23:50:00,
2013-04-28 19:55:00,59.7,29.1,30.13,ESE,103,0.0,0.0,31,0.00,,BKN100,0.00,VWS V14.01,2013-04-28 23:55:00,
2013-04-28 20:00:00,59.7,29.1,30.13,East,96,0.0,0.0,31,0.00,,BKN100,0.00,VWS V14.01,2013-04-29 00:00:00,
2013-04-28 20:05:00,57.7,31.0,30.13,North,1,2.2,3.1,36,0.00,,BKN100,0.00,VWS V14.01,2013-04-29 00:05:00,
2013-04-28 20:10:00,57.7,31.0,30.13,North,1,0.0,0.0,36,0.00,,BKN100,0.00,VWS V14.01,2013-04-29 00:10:00,
2013-04-28 20:15:00,56.5,31.2,30.13,North,1,0.0,0.0,38,0.00,,BKN100,0.00,VWS V14.01,2013-04-29 00:15:00,
2013-04-28 20:20:00,55.6,32.3,30.13,NW,325,0.0,0.0,41,0.00,,BKN100,0.00,VWS V14.01,2013-04-29 00:20:00,
2013-04-28 20:25:00,54.9,33.9,30.13,NNW,335,0.0,0.0,45,0.00,,CLR,0.00,VWS V14.01,2013-04-29 00:25:00,
2013-04-28 20:30:00,54.3,33.5,30.13,NNW,341,0.0,0.0,45,0.00,,CLR,0.00,VWS V14.01,2013-04-29 00:30:00,
2013-04-28 20:35:00,54.3,33.5,30.13,NNW,341,0.0,0.0,45,0.00,,CLR,0.00,VWS V14.01,2013-04-29 00:35:00,
2013-04-28 20:40:00,53.2,33.5,30.13,NNW,341,0.0,0.0,47,0.00,,CLR,0.00,VWS V14.01,2013-04-29 00:40:00,
2013-04-28 20:45:00,52.5,33.4,30.13,NNW,341,0.0,0.0,48,0.00,,CLR,0.00,VWS V14.01,2013-04-29 00:45:00,
2013-04-28 20:50:00,52.3,33.8,30.13,North,353,2.7,2.7,49,0.00,,CLR,0.00,VWS V14.01,2013-04-29 00:50:00,
2013-04-28 20:55:00,52.3,33.8,30.13,North,353,2.7,2.7,49,0.00,,CLR,0.00,VWS V14.01,2013-04-29 00:55:00,
2013-04-28 21:00:00,52.3,33.8,30.13,North,353,0.0,0.0,49,0.00,,CLR,0.00,VWS V14.01,2013-04-29 01:00:00,
2013-04-28 21:05:00,51.4,34.9,30.13,North,2,3.6,3.6,53,0.00,,CLR,0.00,VWS V14.01,2013-04-29 01:05:00,
2013-04-28 21:10:00,51.1,34.6,30.13,North,357,4.0,4.0,53,0.00,,CLR,0.00,VWS V14.01,2013-04-29 01:10:00,
2013-04-28 21:15:00,50.7,34.7,30.13,North,2,3.1,3.1,54,0.00,,CLR,0.00,VWS V14.01,2013-04-29 01:15:00,
2013-04-28 21:20:00,50.7,34.7,30.13,North,353,4.5,4.5,54,0.00,,CLR,0.00,VWS V14.01,2013-04-29 01:20:00,
2013-04-28 21:25:00,50.7,34.7,30.13,North,357,4.9,4.9,54,0.00,,CLR,0.00,VWS V14.01,2013-04-29 01:25:00,
2013-04-28 21:30:00,50.0,34.0,30.13,North,353,3.6,3.6,54,0.00,,CLR,0.00,VWS V14.01,2013-04-29 01:30:00,
2013-04-28 21:35:00,49.5,34.4,30.13,NNW,343,4.0,4.0,56,0.00,,CLR,0.00,VWS V14.01,2013-04-29 01:35:00,
2013-04-28 21:40:00,49.1,33.7,30.13,NNW,343,2.2,2.2,55,0.00,,CLR,0.00,VWS V14.01,2013-04-29 01:40:00,
2013-04-28 21:45:00,48.7,33.3,30.13,North,353,0.0,0.0,55,0.00,,CLR,0.00,VWS V14.01,2013-04-29 01:45:00,
2013-04-28 21:50:00,48.7,33.3,30.13,North,2,4.0,4.0,55,0.00,,CLR,0.00,VWS V14.01,2013-04-29 01:50:00,
2013-04-28 21:55:00,48.2,33.7,30.13,NNW,334,2.2,2.7,57,0.00,,CLR,0.00,VWS V14.01,2013-04-29 01:55:00,
2013-04-28 22:00:00,48.2,33.7,30.13,NNW,343,4.0,4.0,57,0.00,,CLR,0.00,VWS V14.01,2013-04-29 02:00:00,
2013-04-28 22:05:00,47.8,34.2,30.13,NNW,344,4.0,4.0,59,0.00,,CLR,0.00,VWS V14.01,2013-04-29 02:05:00,
2013-04-28 22:10:00,47.8,34.2,30.13,NNW,345,3.6,3.6,59,0.00,,CLR,0.00,VWS V14.01,2013-04-29 02:10:00,
2013-04-28 22:15:00,47.7,34.0,30.13,NNW,345,4.0,4.0,59,0.00,,CLR,0.00,VWS V14.01,2013-04-29 02:15:00,
2013-04-28 22:20:00,47.5,34.3,30.13,NNW,344,3.1,3.1,60,0.00,,CLR,0.00,VWS V14.01,2013-04-29 02:20:00,
2013-04-28 22:25:00,47.3,34.1,30.13,North,0,0.0,0.0,60,0.00,,CLR,0.00,VWS V14.01,2013-04-29 02:25:00,
2013-04-28 22:30:00,47.1,34.4,30.13,NW,326,0.0,2.2,61,0.00,,CLR,0.00,VWS V14.01,2013-04-29 02:30:00,
2013-04-28 22:35:00,46.9,34.6,30.13,NNW,328,5.4,5.4,62,0.00,,CLR,0.00,VWS V14.01,2013-04-29 02:35:00,
2013-04-28 22:40:00,47.1,34.8,30.13,NNW,337,3.6,3.6,62,0.00,,CLR,0.00,VWS V14.01,2013-04-29 02:40:00,
2013-04-28 22:45:00,46.9,34.6,30.13,NNW,335,0.0,0.0,62,0.00,,CLR,0.00,VWS V14.01,2013-04-29 02:45:00,
2013-04-28 22:51:00,46.9,34.6,30.13,NNW,337,3.6,3.6,62,0.00,,CLR,0.00,VWS V14.01,2013-04-29 02:51:00,
2013-04-28 22:56:00,46.8,34.4,30.13,NNW,346,0.0,0.0,62,0.00,,CLR,0.00,VWS V14.01,2013-04-29 02:56:00,
2013-04-28 23:01:00,46.6,34.7,30.13,North,353,3.6,3.6,63,0.00,,CLR,0.00,VWS V14.01,2013-04-29 03:01:00,
2013-04-28 23:06:00,46.4,34.1,30.13,North,353,2.2,2.2,62,0.00,,CLR,0.00,VWS V14.01,2013-04-29 03:06:00,
2013-04-28 23:11:00,46.6,34.7,30.13,NNW,342,3.1,3.1,63,0.00,,CLR,0.00,VWS V14.01,2013-04-29 03:11:00,
2013-04-28 23:16:00,46.6,34.7,30.13,NNW,345,3.6,3.6,63,0.00,,CLR,0.00,VWS V14.01,2013-04-29 03:16:00,
2013-04-28 23:21:00,46.6,34.7,30.13,NNW,345,5.8,5.8,63,0.00,,CLR,0.00,VWS V14.01,2013-04-29 03:21:00,
2013-04-28 23:26:00,46.6,34.7,30.13,NNW,346,4.9,4.9,63,0.00,,CLR,0.00,VWS V14.01,2013-04-29 03:26:00,
2013-04-28 23:31:00,46.4,34.5,30.13,NNW,346,2.2,2.2,63,0.00,,CLR,0.00,VWS V14.01,2013-04-29 03:31:00,
2013-04-28 23:36:00,46.2,34.3,30.13,NNW,346,3.1,3.1,63,0.00,,CLR,0.00,VWS V14.01,2013-04-29 03:36:00,
2013-04-28 23:41:00,46.0,34.6,30.13,NNW,346,3.1,3.1,64,0.00,,CLR,0.00,VWS V14.01,2013-04-29 03:41:00,
2013-04-28 23:46:00,45.9,34.8,30.13,NNW,346,0.0,2.2,65,0.00,,CLR,0.00,VWS V14.01,2013-04-29 03:46:00,
2013-04-28 23:51:00,45.9,34.8,30.13,NNW,346,0.0,0.0,65,0.00,,CLR,0.00,VWS V14.01,2013-04-29 03:51:00,
2013-04-28 23:56:00,45.7,35.0,30.13,NNW,346,0.0,0.0,66,0.00,,CLR,0.00,VWS V14.01,2013-04-29 03:56:00,